[[{"header":{"parameterUnit":"m.s-1","parameterCategory":2,"la1":30.2992,"la2":30.254,"lo1":-89.0895,"lo2":-89.0443,"dy":0.0025,"dx":0.0025,"nx":19,"ny":19,"refTime":"2026-03-24T21:00:00:Z","depth":"0","parameterNumber":2,"parameterNumberName":"U-component_of_CURRENTS"},"data":[0,0,0,0.1677,0.1676,0.1654,0.1654,0.167,0.167,0,0,0,0,0,0,0,0,0,0,0,0.1695,0.1695,0.1677,0.1676,0.1654,0.1654,0.167,0.167,0,0,0,0,0,0,0,0,0,0,0,0.1695,0.1695,0.1695,0.1676,0.1654,0.1654,0.167,0.1678,0,0,0,0,0,0,0,0,0,0,0.1696,0.1714,0.1695,0.1695,0.1676,0.1654,0.1654,0.1678,0.1678,0.169,0,0.1686,0,0.167,0.1672,0.1672,0,0,0,0.1686,0.1715,0.1693,0.1695,0.1675,0.1654,0.1667,0.1678,0.1677,0.169,0.1686,0.1685,0.1671,0.1672,0.1672,0.1695,0.1696,0,0,0.1688,0.1708,0.1693,0.1692,0.1669,0.1667,0.1666,0.1677,0.1687,0.1686,0.1685,0.1671,0.1672,0.1672,0.1695,0.1695,0,0,0,0.1684,0.1709,0.1686,0.1692,0.168,0.1666,0.1665,0.1687,0.1675,0.1685,0.1671,0.1672,0.1672,0.1695,0.1695,0.1716,0,0,0,0.1686,0.1705,0.1687,0.1701,0.1679,0.1679,0.1675,0.1674,0.1674,0.1671,0.1672,0.1672,0.1695,0.1695,0.1715,0.1718,0,0,0,0.1696,0.1707,0.17,0.1701,0.1684,0.1678,0.1668,0.1674,0.1665,0.1672,0.1672,0.1695,0.1695,0.1715,0.1717,0.175,0,0,0,0.1723,0.171,0.1701,0.1692,0.1684,0.1665,0.1667,0.1661,0.1665,0.1672,0.1695,0.1695,0.1714,0.1716,0.1749,0.1704,0.1705,0,0,0.1716,0.1711,0.1703,0.1693,0.1677,0.1669,0.1672,0.1675,0.1676,0.1696,0.1696,0.1716,0.1717,0.1749,0.1721,0.1722,0,0,0,0.1707,0.1702,0.1697,0.1689,0.1674,0.1677,0.1673,0.1686,0.1706,0.1677,0.1716,0.1716,0.1736,0.1706,0.1707,0.1498,0.1697,0.1697,0.1697,0.1716,0.1705,0.1702,0.1691,0.1686,0.1684,0.1698,0.1714,0.1713,0.173,0.1733,0.1771,0.1739,0.1739,0.1524,0.1737,0.1737,0.1737,0.1737,0.1712,0.1705,0.171,0.1699,0.1701,0.1702,0.1725,0.1733,0.1777,0.1763,0.1782,0.1729,0.1741,0.1511,0.1738,0.1738,0.1738,0.1738,0.1738,0.1712,0.1706,0.1709,0.1708,0.1706,0.1705,0.1718,0.1744,0.1788,0.1808,0.1783,0.1781,0.158,0.182,0.1821,0.1821,0.1821,0.1821,0.1821,0.1706,0.1709,0.1717,0.1711,0.1706,0.1697,0.1717,0.1741,0.1778,0.1798,0.1798,0.1556,0.1796,0.1794,0.1824,0.1823,0.1823,0.1823,0.1822,0.1695,0.1709,0.1717,0.1719,0.17,0.1662,0.1692,0.1709,0.1757,0.1773,0.1531,0.1801,0.1792,0.179,0.1787,0.1814,0.1814,0.1814,0.1814,0.1699,0.1703,0.1723,0.1717,0.1689,0.1647,0.1602,0.161,0.1537,0.144,0.1409,0.1337,0.1347,0.1307,0.1316,0.1302,0.1204,0.1203,0.1202,0.1713,0.172,0.1727,0.1716,0.1676,0.161,0.1515,0.1393,0.1232,0.1156,0.1123,0.1149,0.1023,0.1055,0.0979,0.1008,0.0981,0,0]},{"header":{"parameterUnit":"m.s-1","parameterCategory":2,"la1":30.2992,"la2":30.254,"lo1":-89.0895,"lo2":-89.0443,"dy":0.0025,"dx":0.0025,"nx":19,"ny":19,"refTime":"2026-03-24T21:00:00:Z","depth":"0","parameterNumber":3,"parameterNumberName":"V-component_of_CURRENTS"},"data":[0,0,0,0.0141,0.0143,0.0208,0.0208,0.0237,0.0237,0,0,0,0,0,0,0,0,0,0,0,0.0116,0.0116,0.0141,0.0143,0.0208,0.0208,0.0237,0.0237,0,0,0,0,0,0,0,0,0,0,0,0.0115,0.0116,0.0117,0.0143,0.0208,0.0208,0.0237,0.0199,0,0,0,0,0,0,0,0,0,0,0.0141,0.0122,0.0116,0.0117,0.0144,0.0208,0.0209,0.0198,0.0201,0.0194,0,0.0212,0,0.023,0.0238,0.0238,0,0,0,0.0134,0.0119,0.0146,0.0117,0.0145,0.0208,0.0176,0.02,0.0204,0.0199,0.0213,0.0214,0.023,0.0238,0.0239,0.031,0.0311,0,0,0.013,0.0116,0.0144,0.0149,0.0171,0.0174,0.0178,0.0203,0.0204,0.0213,0.0215,0.0231,0.0239,0.0239,0.031,0.0311,0,0,0,0.0126,0.0113,0.014,0.0147,0.0167,0.0176,0.0181,0.0203,0.0215,0.0216,0.0231,0.0239,0.0239,0.0309,0.031,0.0348,0,0,0,0.0124,0.0112,0.0139,0.0129,0.0167,0.0192,0.018,0.0213,0.0217,0.0231,0.0239,0.0239,0.0308,0.031,0.0346,0.039,0,0,0,0.0111,0.011,0.0123,0.0128,0.0162,0.0192,0.0205,0.0215,0.0226,0.0238,0.0239,0.0308,0.0309,0.0344,0.0385,0.0506,0,0,0,0.0086,0.0126,0.0122,0.017,0.0162,0.0207,0.0206,0.0239,0.0253,0.0239,0.0309,0.031,0.0343,0.0382,0.0502,0.0531,0.0554,0,0,0.0128,0.0131,0.016,0.0159,0.0193,0.0197,0.0242,0.0262,0.0273,0.0293,0.0295,0.0347,0.0385,0.0505,0.0617,0.0637,0,0,0,0.0168,0.0176,0.0191,0.0206,0.0234,0.0259,0.0267,0.0301,0.0352,0.0291,0.0366,0.039,0.0465,0.0474,0.049,0.0412,0.0317,0.0317,0.0317,0.0173,0.0188,0.0212,0.0225,0.0253,0.0296,0.0353,0.0399,0.0373,0.0421,0.0435,0.0572,0.0579,0.0592,0.051,0.0435,0.0436,0.0436,0.0436,0.0193,0.0207,0.0209,0.0237,0.0265,0.0299,0.0413,0.0445,0.0573,0.0509,0.0579,0.0529,0.0612,0.0518,0.0439,0.0438,0.0438,0.0438,0.0437,0.0179,0.0191,0.0195,0.022,0.027,0.0329,0.0475,0.0553,0.063,0.0702,0.0752,0.0751,0.0664,0.0741,0.0742,0.0742,0.0743,0.0744,0.0744,0.0171,0.0177,0.0191,0.0219,0.0261,0.0359,0.0533,0.0651,0.0797,0.0835,0.0835,0.0708,0.0667,0.0649,0.0755,0.0753,0.0752,0.0751,0.075,0.0191,0.0181,0.0212,0.0241,0.0341,0.0465,0.0604,0.0835,0.0967,0.105,0.0909,0.0927,0.0939,0.0925,0.0914,0.1084,0.1084,0.1084,0.1084,0.0203,0.0197,0.0247,0.031,0.0415,0.0529,0.0755,0.0937,0.1036,0.1045,0.1001,0.0888,0.0878,0.0878,0.0865,0.085,0.0999,0.0999,0.0999,0.0221,0.0231,0.0277,0.0323,0.0448,0.0603,0.0797,0.0965,0.1036,0.0984,0.0892,0.0896,0.0711,0.0702,0.068,0.0668,0.0635,0,0]}],[{"header":{"parameterUnit":"m.s-1","parameterCategory":2,"la1":30.2992,"la2":30.254,"lo1":-89.0895,"lo2":-89.0443,"dy":0.0025,"dx":0.0025,"nx":19,"ny":19,"refTime":"2026-03-24T21:00:00:Z","depth":"2","parameterNumber":2,"parameterNumberName":"U-component_of_CURRENTS"},"data":[0,0,0,0.1098,0.11,0.119,0.119,0.1189,0.1189,0,0,0,0,0,0,0,0,0,0,0,0.1049,0.105,0.1097,0.1101,0.119,0.119,0.1189,0.1189,0,0,0,0,0,0,0,0,0,0,0,0.1049,0.105,0.1051,0.1101,0.119,0.119,0.1189,0.1144,0,0,0,0,0,0,0,0,0,0,0.1069,0.107,0.105,0.1051,0.1102,0.119,0.119,0.1143,0.1147,0.1123,0,0.1148,0,0.1185,0.1189,0.1189,0,0,0,0.1076,0.1068,0.108,0.1051,0.1103,0.119,0.1143,0.1146,0.115,0.1128,0.1148,0.115,0.1185,0.1189,0.1189,0.121,0.121,0,0,0.1071,0.1073,0.1077,0.1083,0.1138,0.114,0.1146,0.115,0.1164,0.1148,0.1151,0.1185,0.1189,0.1189,0.1209,0.121,0,0,0,0.1073,0.1069,0.1083,0.1081,0.1117,0.1143,0.115,0.1163,0.1165,0.1151,0.1185,0.1189,0.1189,0.1209,0.1209,0.1306,0,0,0,0.1069,0.1073,0.1081,0.1084,0.1118,0.1164,0.1163,0.1164,0.1167,0.1185,0.1189,0.1189,0.1209,0.1209,0.1303,0.1341,0,0,0,0.1043,0.1071,0.1082,0.1084,0.1135,0.1165,0.1168,0.1166,0.1188,0.1189,0.1189,0.1208,0.1209,0.13,0.1335,0.1398,0,0,0,0.1039,0.1047,0.1082,0.1104,0.1135,0.1141,0.1168,0.1181,0.1179,0.1189,0.1209,0.1209,0.1299,0.1332,0.1394,0.1202,0.1203,0,0,0.1034,0.1047,0.1055,0.1088,0.1103,0.1126,0.1163,0.1183,0.1183,0.1194,0.1195,0.1304,0.1335,0.1397,0.124,0.124,0,0,0,0.1043,0.1057,0.1061,0.1096,0.1102,0.1157,0.1171,0.1213,0.1275,0.1194,0.129,0.1306,0.1343,0.1218,0.1219,0.1212,0.1212,0.1212,0.1212,0.1043,0.1055,0.1075,0.1099,0.1116,0.1176,0.1241,0.1304,0.1275,0.1337,0.1375,0.1473,0.1339,0.1337,0.1364,0.1365,0.1365,0.1365,0.1365,0.1046,0.1072,0.1106,0.1132,0.1184,0.1225,0.1336,0.1381,0.1505,0.1459,0.1491,0.1312,0.1343,0.1373,0.1371,0.137,0.137,0.1369,0.1369,0.1049,0.1068,0.1093,0.1161,0.1236,0.1295,0.1418,0.1505,0.158,0.1645,0.1482,0.1477,0.1543,0.165,0.1651,0.1651,0.1652,0.1652,0.1652,0.1053,0.1077,0.1133,0.12,0.1258,0.1346,0.1479,0.1548,0.1569,0.1565,0.1562,0.1568,0.1559,0.1558,0.166,0.1658,0.1657,0.1657,0.1656,0.1087,0.1107,0.118,0.1237,0.1341,0.1349,0.1452,0.1441,0.1531,0.1489,0.1519,0.152,0.147,0.1465,0.146,0.1531,0.1531,0.1531,0.1531,0.1125,0.1134,0.1238,0.1307,0.1364,0.1361,0.1268,0.1188,0.1235,0.124,0.1253,0.1127,0.1138,0.1063,0.1067,0.1052,0.1017,0.1016,0.1015,0.1177,0.1201,0.127,0.1319,0.1363,0.1316,0.1105,0.0844,0.0838,0.0999,0.1204,0.1488,0.1331,0.1337,0.1241,0.1241,0.1223,0,0]},{"header":{"parameterUnit":"m.s-1","parameterCategory":2,"la1":30.2992,"la2":30.254,"lo1":-89.0895,"lo2":-89.0443,"dy":0.0025,"dx":0.0025,"nx":19,"ny":19,"refTime":"2026-03-24T21:00:00:Z","depth":"2","parameterNumber":3,"parameterNumberName":"V-component_of_CURRENTS"},"data":[0,0,0,0.0052,0.0052,0.0046,0.0046,0.0006,0.0006,0,0,0,0,0,0,0,0,0,0,0,0.0053,0.0053,0.0052,0.0052,0.0046,0.0046,0.0006,0.0006,0,0,0,0,0,0,0,0,0,0,0,0.0053,0.0053,0.0053,0.0052,0.0046,0.0046,0.0006,0.0018,0,0,0,0,0,0,0,0,0,0,0.0028,0.0025,0.0053,0.0053,0.0052,0.0046,0.0046,0.0019,0.0017,0.0001,0,0.0003,0,0.0005,0.0003,0.0002,0,0,0,0.0048,0.0026,0.0035,0.0053,0.0052,0.0046,0.0048,0.0018,0.0016,-0.0001,0.0002,0.0001,0.0004,0.0002,0.0002,-0.0017,-0.0017,0,0,0.0048,0.004,0.0036,0.0034,0.0053,0.0048,0.0047,0.0017,0.0009,0.0002,0.0,0.0004,0.0002,0.0002,-0.0017,-0.0017,0,0,0,0.0052,0.004,0.005,0.0035,0.0038,0.0048,0.0047,0.001,0.0017,0.0,0.0003,0.0002,0.0001,-0.0017,-0.0017,0.0057,0,0,0,0.0052,0.0043,0.005,0.0043,0.0039,0.0026,0.0041,0.0019,0.0016,0.0004,0.0002,0.0001,-0.0017,-0.0017,0.0055,0.0105,0,0,0,0.0053,0.0042,0.0045,0.0043,0.0044,0.0027,0.0031,0.0018,0.0018,0.0002,0.0001,-0.0017,-0.0017,0.0053,0.0101,0.0225,0,0,0,0.0039,0.0038,0.0045,0.0037,0.0044,0.0043,0.0031,0.0022,0.0011,0.0002,-0.0017,-0.0017,0.0052,0.0098,0.0221,0.021,0.0228,0,0,0.0032,0.0036,0.0032,0.0039,0.0031,0.0044,0.0057,0.0039,0.001,-0.0011,-0.0011,0.0056,0.01,0.0224,0.0226,0.0245,0,0,0,0.0026,0.002,0.0019,0.0013,0.0022,0.0061,0.0043,0.0059,0.0059,0.0006,0.0041,0.0066,0.0143,0.0126,0.014,-0.0016,-0.0016,-0.0016,-0.0016,0.0005,0.0006,-0.0003,0.0005,0.002,0.0064,0.0117,0.0133,0.0077,0.0096,0.0115,0.0244,0.0221,0.0233,0.0091,0.0092,0.0092,0.0092,0.0092,-0.0015,-0.0018,-0.0007,-0.0015,0.0039,0.0062,0.0168,0.0184,0.0276,0.0181,0.0253,0.0188,0.0254,0.0098,0.0097,0.0096,0.0096,0.0095,0.0095,-0.003,-0.0029,-0.0039,-0.0025,0.0029,0.0092,0.0249,0.0297,0.0342,0.0417,0.0417,0.0414,0.0338,0.0448,0.0449,0.045,0.045,0.0451,0.0451,-0.0037,-0.0043,-0.0028,-0.0019,0.0029,0.0132,0.0298,0.0418,0.0518,0.0515,0.0515,0.0365,0.0353,0.0359,0.0463,0.0461,0.0459,0.0458,0.0458,-0.005,-0.0037,0.0002,0.004,0.0156,0.0306,0.0436,0.0641,0.0737,0.0799,0.0599,0.0591,0.0585,0.0571,0.0581,0.0737,0.0737,0.0737,0.0737,-0.0033,-0.0036,0.0071,0.0171,0.0305,0.0417,0.0667,0.0747,0.0769,0.0696,0.0698,0.0575,0.0565,0.055,0.0536,0.0542,0.0689,0.0688,0.0688,-0.0016,0.0027,0.0124,0.022,0.0381,0.0558,0.0743,0.0736,0.0633,0.0683,0.0659,0.074,0.0556,0.0542,0.051,0.0491,0.0497,0,0]}],[{"header":{"parameterUnit":"m.s-1","parameterCategory":2,"la1":30.2992,"la2":30.254,"lo1":-89.0895,"lo2":-89.0443,"dy":0.0025,"dx":0.0025,"nx":19,"ny":19,"refTime":"2026-03-24T21:00:00:Z","depth":"4","parameterNumber":2,"parameterNumberName":"U-component_of_CURRENTS"},"data":[0,0,0,0.0265,0.0265,0.0286,0.0286,0.0317,0.0317,0,0,0,0,0,0,0,0,0,0,0,0.0274,0.0274,0.0265,0.0265,0.0286,0.0286,0.0317,0.0317,0,0,0,0,0,0,0,0,0,0,0,0.0274,0.0274,0.0275,0.0265,0.0285,0.0286,0.0317,0.0302,0,0,0,0,0,0,0,0,0,0,0.0283,0.0289,0.0274,0.0275,0.0265,0.0285,0.0286,0.0302,0.0303,0.0306,0,0.0317,0,0.0306,0.0319,0.0319,0,0,0,0.0274,0.0288,0.0287,0.0275,0.0265,0.0285,0.0279,0.0303,0.0304,0.0308,0.0317,0.0317,0.0307,0.0319,0.0319,0.0311,0.0311,0,0,0.0273,0.0283,0.0286,0.0288,0.028,0.0278,0.0279,0.0304,0.0314,0.0317,0.0318,0.0307,0.0319,0.0319,0.0312,0.0311,0,0,0,0.0263,0.0282,0.0281,0.0288,0.0285,0.0278,0.028,0.0313,0.0311,0.0318,0.0308,0.0319,0.0319,0.0312,0.0312,0.0375,0,0,0,0.0263,0.0275,0.028,0.0287,0.0284,0.0298,0.0289,0.031,0.0312,0.0307,0.0319,0.0319,0.0312,0.0312,0.0374,0.0413,0,0,0,0.0271,0.0275,0.028,0.0287,0.0289,0.0297,0.0297,0.031,0.0305,0.0319,0.0319,0.0312,0.0312,0.0373,0.041,0.0439,0,0,0,0.0277,0.0272,0.0281,0.0265,0.0289,0.0266,0.0297,0.0299,0.031,0.0319,0.0312,0.0312,0.0373,0.0408,0.0438,0.0341,0,0,0,0.0265,0.0272,0.0256,0.0262,0.0223,0.0263,0.0253,0.0291,0.0301,0.0307,0.0307,0.0375,0.041,0.0439,0.0308,0,0,0,0,0.0246,0.0228,0.022,0.0201,0.0201,0.024,0.025,0.0284,0.0332,0.0303,0.0345,0.0365,0.0382,0.0317,0.0309,0.0309,0.0309,0.0309,0.0309,0.0222,0.0202,0.0165,0.0146,0.0155,0.0213,0.0265,0.0311,0.0311,0.0348,0.0395,0.0432,0.0362,0.0363,0.0363,0.0363,0.0363,0.0364,0.0364,0.0141,0.0096,0.0111,0.0076,0.014,0.0175,0.0287,0.0346,0.0429,0.0419,0.0432,0.0361,0.0369,0.0368,0.0367,0.0367,0.0366,0.0366,0.0366,0.0076,0.0053,0.0052,0.0038,0.0125,0.0221,0.0324,0.0422,0.0491,0.0531,0.0456,0.0473,0.0494,0.0542,0.0543,0.0543,0.0543,0.0543,0.0544,0.0007,-0.0004,-0.0002,0.002,0.0087,0.0204,0.0385,0.0441,0.0525,0.0518,0.0559,0.0492,0.0486,0.0503,0.0548,0.0547,0.0547,0.0546,0.0546,-0.0106,-0.0073,-0.0069,-0.0024,0.0101,0.0172,0.0325,0.0436,0.0497,0.0519,0.0498,0.0499,0.047,0.0465,0.048,0.0521,0.052,0.0519,0,-0.0158,-0.0156,-0.0116,-0.0042,0.0042,0.0152,0.0234,0.033,0.0418,0.0395,0.0477,0.0448,0.0449,0.0409,0.0403,0.0415,0,0,0,-0.0221,-0.0187,-0.0158,-0.0079,0.0023,0.014,0.0258,0.0289,0.0397,0.0443,0.0493,0.05,0.0496,0.0562,0.052,0.0513,0.0538,0,0]},{"header":{"parameterUnit":"m.s-1","parameterCategory":2,"la1":30.2992,"la2":30.254,"lo1":-89.0895,"lo2":-89.0443,"dy":0.0025,"dx":0.0025,"nx":19,"ny":19,"refTime":"2026-03-24T21:00:00:Z","depth":"4","parameterNumber":3,"parameterNumberName":"V-component_of_CURRENTS"},"data":[0,0,0,0.0135,0.0135,0.0139,0.0139,0.0114,0.0114,0,0,0,0,0,0,0,0,0,0,0,0.0132,0.0132,0.0135,0.0135,0.0139,0.0139,0.0114,0.0114,0,0,0,0,0,0,0,0,0,0,0,0.0132,0.0132,0.0132,0.0135,0.0139,0.0139,0.0114,0.0118,0,0,0,0,0,0,0,0,0,0,0.0117,0.0115,0.0132,0.0132,0.0135,0.0139,0.0139,0.0118,0.0117,0.0105,0,0.0108,0,0.0112,0.0112,0.0112,0,0,0,0.0131,0.0115,0.0123,0.0132,0.0135,0.0139,0.0136,0.0118,0.0117,0.0104,0.0108,0.0107,0.0112,0.0111,0.0111,0.0114,0.0114,0,0,0.0131,0.0125,0.0124,0.0123,0.0139,0.0136,0.0136,0.0118,0.0113,0.0108,0.0107,0.0111,0.0111,0.0111,0.0113,0.0114,0,0,0,0.0133,0.0124,0.0133,0.0123,0.0127,0.0136,0.0136,0.0114,0.0119,0.0107,0.0111,0.0111,0.0111,0.0113,0.0114,0.0147,0,0,0,0.0133,0.0126,0.0133,0.0128,0.0128,0.0123,0.0133,0.012,0.0118,0.0111,0.0111,0.011,0.0113,0.0113,0.0145,0.0169,0,0,0,0.0131,0.0126,0.0129,0.0128,0.0133,0.0124,0.0128,0.012,0.0121,0.0111,0.011,0.0113,0.0113,0.0144,0.0166,0.014,0,0,0,0.0121,0.0114,0.0129,0.0128,0.0133,0.0155,0.0128,0.013,0.0125,0.0111,0.0113,0.0114,0.0144,0.0165,0.0139,0.0145,0,0,0,0.0105,0.0112,0.0114,0.0127,0.0161,0.0154,0.0182,0.0156,0.0129,0.0115,0.0116,0.0146,0.0166,0.0139,0.018,0,0,0,0,0.0104,0.012,0.0126,0.0155,0.0169,0.0197,0.0191,0.017,0.0149,0.013,0.0148,0.016,0.0142,0.0144,0.0116,0.0116,0.0116,0.0116,0.0116,0.0099,0.0126,0.016,0.0205,0.0217,0.0232,0.0224,0.0201,0.0183,0.0172,0.0189,0.0197,0.0202,0.0186,0.0186,0.0186,0.0186,0.0186,0.0186,0.0138,0.0173,0.0216,0.0261,0.0292,0.0323,0.0283,0.0257,0.0223,0.0214,0.0193,0.0183,0.019,0.0189,0.0188,0.0188,0.0188,0.0188,0.0187,0.0165,0.0186,0.0233,0.0316,0.0371,0.0385,0.0359,0.0317,0.026,0.0246,0.0223,0.0209,0.0201,0.0234,0.0234,0.0234,0.0234,0.0234,0.0234,0.0175,0.0221,0.0289,0.0376,0.0415,0.0431,0.0407,0.0354,0.03,0.0266,0.0261,0.0212,0.0211,0.0203,0.0234,0.0234,0.0234,0.0234,0.0234,0.0203,0.0233,0.031,0.0362,0.0443,0.0438,0.0427,0.0356,0.0304,0.0259,0.025,0.0249,0.023,0.0227,0.0219,0.0256,0.0256,0.0256,0,0.0213,0.0241,0.0328,0.0384,0.0407,0.0423,0.037,0.0329,0.0272,0.0273,0.0263,0.0253,0.0252,0.023,0.0228,0.0219,0,0,0,0.024,0.0254,0.0305,0.0372,0.0396,0.0349,0.0344,0.0333,0.0298,0.0273,0.0261,0.026,0.0251,0.0234,0.0201,0.0199,0.0184,0,0]}]]